Location: Borgo
(42.3939°N, 9.2791°E)
Time: 18:42:15
(UTC+00:00)

Cosmos 540 Rocket - Pass Details

Date: 27 February 2020
Orbit: 739 x 754 km, 74.1° (Epoch: 29 March)

Event Time Altitude Azimuth Distance (km) Brightness Sun altitude
Rises 19:25:20 0° 209° (SSW) 3,167 6.9 -25.7°
Reaches altitude 10° 19:27:43 10° 213° (SSW) 2,250 6.1 -26.2°
Maximum altitude 19:32:44 58° 293° (WNW) 865 3.9 -27.1°
Drops below altitude 10° 19:37:49 10° 13° (NNE) 2,275 6.0 -28.0°
Sets 19:40:14 0° 17° (NNE) 3,205 6.7 -28.4°
